Location: Haieshausen
(51.8387°N, 9.9720°E)
Time: 03:25:28
(UTC+00:00)

Cosmos 1184 Rocket - Pass Details

Date: 14 July 2020
Orbit: 408 x 421 km, 81.2° (Epoch: 10 August)

Event Time Altitude Azimuth Distance (km) Brightness Sun altitude
Exits shadow 00:49:56 30° 212° (SSW) 779 3.5 -14.3°
Maximum altitude 00:51:21 64° 284° (WNW) 468 2.9 -14.2°
Drops below altitude 10° 00:54:37 10° 7° (N) 1,509 6.9 -14.0°
Sets 00:56:41 0° 11° (N) 2,382 8.4 -13.9°
